Terug naar catalogus

STARLINK-33950

ActiefCommunicatieVLEO
NORAD 63701·PAYLOAD·🇺🇸 United States

Gelanceerd Apr 28, 2025 vanaf Vandenberg Space Force Base

Loading…

Volgende Passages (komende 24 uur)

TLE

VersSource: CelesTrak SupGP

Epoch: Sep 14, 2026, 20:48 UTC

1 63701C 25087E   26257.86715278  .00013331  00000+0  42878-3 0  2574
2 63701  53.1588  59.7684 0001271  83.0533 101.5480 15.31689384    19

Volg STARLINK-33950 in realtime met AllMySat

Download on the App Store